Flag for Cyprus Weather past 2 weeks in Nicosia, Cyprus

Now
86 °F

Passing clouds.


Feels Like: 86 °F
Forecast: 75 / 98 °F
Wind: 8 mph from Northeast

Location: Ercan

Current Time: Aug 30, 2015 at 9:38:21 AM

Latest Report: Aug 30, 2015 at 8:50 AM


Visibility: N/A

Pressure: 29.83 "Hg

Humidity: 43%

Dew point: 61 °F

Location of NicosiaLocation

Historic Weather in Nicosia — Graph

°F

Nicosia temperature yesterday

Maximum temperature yesterday: 97 °F (at 1:50 PM)
Minimum temperature yesterday: 77 °F (at 3:50 AM)
Average temperature yesterday: 86 °F

Past Weeks' High & Low Weather Summary

 TemperatureHumidityPressure
High104 °F (Aug 16, 1:50 PM)94% (Aug 18, 6:50 AM)29.89 "Hg (Aug 18, 6:50 AM)
Low70 °F (Aug 21, 6:20 AM)10% (Aug 29, 3:20 PM)29.65 "Hg (Aug 22, 4:50 PM)
Average86 °F51%29.77 "Hg
* Reported Aug 15 8:20 AM — Aug 30 8:20 AM, Nicosia, Weather by CustomWeather, © 2015

Note: Actual official high and low records may vary slightly from our data, if they occured in-between our weather recording intervals... More about our weather records

Advertising

Nicosia weather history for previous 24 hours

 ConditionsComfort  
Time TempWeatherWind HumidityBarometerVisibility
8:20 AM
Sun, Aug 30
86 °FPassing clouds.5 mph35%29.83 "HgN/A
7:50 AM84 °FPassing clouds.7 mph37%29.83 "HgN/A
6:50 AM79 °FPassing clouds.5 mph58%29.80 "HgN/A
6:20 AM79 °FPassing clouds.8 mph48%29.80 "HgN/A
5:20 AM75 °FPassing clouds.12 mph41%29.80 "HgN/A
4:50 AM75 °FClear.12 mph36%29.80 "Hg10 mi
4:20 AM75 °FClear.9 mph36%29.80 "Hg10 mi
3:50 AM77 °FClear.10 mph34%29.80 "Hg10 mi
3:20 AM75 °FClear.10 mph36%29.80 "Hg10 mi
2:50 AM75 °FClear.8 mph47%29.80 "Hg10 mi
2:20 AM77 °FClear.10 mph47%29.80 "Hg10 mi
1:50 AM77 °FClear.9 mph51%29.80 "Hg10 mi
1:20 AM75 °FClear.9 mph54%29.83 "Hg10 mi
12:50 AM75 °FClear.8 mph47%29.83 "Hg10 mi
11:50 PM
Sat, Aug 29
77 °FClear.9 mph32%29.83 "Hg10 mi
11:20 PM79 °FClear.7 mph26%29.83 "Hg10 mi
10:50 PM82 °FClear.8 mph20%29.83 "Hg10 mi
10:20 PM84 °FPassing clouds.7 mph22%29.86 "HgN/A
9:50 PM84 °FPassing clouds.6 mph25%29.83 "HgN/A
9:20 PM82 °FPassing clouds.3 mph30%29.83 "HgN/A
8:50 PM84 °FPassing clouds.No wind25%29.83 "HgN/A
8:20 PM84 °FPassing clouds.5 mph33%29.83 "HgN/A
7:50 PM86 °FPassing clouds.6 mph31%29.83 "HgN/A
7:20 PM88 °FPassing clouds.5 mph22%29.83 "HgN/A
6:50 PM91 °FPassing clouds.7 mph13%29.80 "HgN/A
6:20 PM93 °FPassing clouds.10 mph12%29.80 "HgN/A
5:50 PM95 °FPassing clouds.12 mph11%29.80 "HgN/A
5:20 PM95 °FPassing clouds.12 mph10%29.80 "HgN/A
4:50 PM97 °FPassing clouds.12 mph10%29.80 "HgN/A
4:20 PM97 °FPassing clouds.14 mph10%29.80 "HgN/A
3:50 PM97 °FPassing clouds.13 mph10%29.83 "HgN/A
3:20 PM97 °FPassing clouds.13 mph10%29.83 "HgN/A
2:50 PM95 °FPassing clouds.12 mph12%29.83 "HgN/A
2:20 PM97 °FPassing clouds.14 mph11%29.83 "HgN/A
1:50 PM97 °FPassing clouds.14 mph12%29.83 "HgN/A
12:50 PM95 °FPassing clouds.13 mph15%29.86 "HgN/A
12:20 PM93 °FPassing clouds.12 mph20%29.86 "HgN/A
11:50 AM93 °FPassing clouds.13 mph23%29.86 "HgN/A
11:20 AM93 °FPassing clouds.14 mph28%29.86 "HgN/A
10:50 AM91 °FPassing clouds.10 mph30%29.86 "HgN/A
10:20 AM91 °FPassing clouds.10 mph30%29.86 "HgN/A
9:50 AM90 °FSunny.12 mph31%29.86 "Hg10 mi
Weather by CustomWeather, © 2015

See weather overviewHow to use our weather pages